Regional Weather Roundup
Issued by NWS Wakefield, VA

Home | Current Version | Previous Version | Graphics & Text | Print | Product List | Glossary On
Versions: 1 2 3 4 5 6 7 8 9 10 11 12 13 14 15 16 17 18 19 20 21 22 23 24 25 26 27 28 29 30 31 32 33 34 35 36 37 38 39 40 41 42 43 44 45 46 47 48 49 50
000
ASUS41 KAKQ 230115
RWRAKQ

REGIONAL WEATHER ROUNDUP
NATIONAL WEATHER SERVICE WAKEFIELD VA
800 PM EST SUN JAN 22 2017

Note: "fair" indicates few or no clouds below 12,000 feet with no
significant weather and/or obstructions to visibility. * = Denotes
station may not report precipitation (e.g., rain,snow,etc.),
thunder or fog.

VAZ042-051-052>054-056-230200-
NORTHERN VIRGINIA

CITY           SKY/WX    TMP DP  RH WIND       PRES   REMARKS
WASH NATIONAL  CLOUDY    50  49  96 NE12      29.64R
DULLES         LGT RAIN  49  47  93 N7        29.63S
FORT BELVOIR   LGT RAIN  51  49  94 VRB5      29.62F
QUANTICO       LGT RAIN  50  50 100 NE8       29.63F VSB 1
FREDERICKSBRG* DRIZZLE   50  50 100 E6        29.61S
STAFFORD*      RAIN      49  49 100 NE7       29.65F
WARRENTON      DRIZZLE   50  47  90 NE6       29.61F
CULPEPER*      RAIN      50  49  99 NE3       29.62F
MANASSAS*      NOT AVBL
LEESBURG*      RAIN      48  48 100 N9        29.64F
WINCHESTER     RAIN      43  43 100 NE5       29.63S
FRONT ROYAL*   CLOUDY    45  45 100 NE5       29.61F
LURAY*         DRIZZLE   46  46 100 N8        29.60F
$$

VAZ048-049-060>072-079>083-230200-
CENTRAL AND SOUTH CENTRAL VIRGINIA

CITY           SKY/WX    TMP DP  RH WIND       PRES   REMARKS
RICHMOND       DRIZZLE   49  49 100 NE3       29.60S FOG
CHESTERFIELD*  CLOUDY    50  36  57 CALM      29.61S
PETERSBURG*    CLOUDY    48  48 100 NE5       29.59F
HANOVER        CLOUDY    49  47  93 CALM      29.61F FOG
TAPPAHANNOCK*  RAIN      49  49 100 N3        29.60F
QUINTON*       CLOUDY    49  49 100 E3        29.58F FOG
CHARLOTTSVILLE LGT RAIN  51  50  96 NE3       29.59S FOG
GORDONSVILLE*  CLOUDY    49  49 100 NE5       29.59S FOG
ORANGE*        RAIN      50  50 100 CALM      29.62S
LOUISA*        DRIZZLE   52  52 100 CALM      29.58S
BUMPASS*       CLOUDY    48  48 100 CALM      29.60S
FARMVILLE*     CLOUDY    51  51 100 NE9       29.55F FOG
CREWE*         CLOUDY    50  50 100 NE3       29.56F
FORT PICKETT*  CLOUDY    50  46  88 NE6       29.56F
CHASE CITY*    CLOUDY    50  49  94 NE8       29.52F
CLARKSVILLE*   CLOUDY    50  50 100 E6        29.51F
SOUTH HILL*    CLOUDY    50  50 100 E3        29.60F
LAWRENCEVILLE* CLOUDY    50  49  97 CALM      29.56S
EMPORIA*       CLOUDY    50  50 100 N5        29.58F FOG
$$

VAZ088>098-230200-
SOUTHEAST VIRGINIA

CITY           SKY/WX    TMP DP  RH WIND       PRES   REMARKS
NORFOLK        CLOUDY    48  47  96 N8        29.56F FOG
VIRGINIA BEACH CLOUDY    47  45  93 NW7       29.58F FOG
NORFOLK NAVAL  LGT RAIN  50  48  93 N6        29.58F FOG
WEST POINT*    CLOUDY    48  48  99 CALM      29.60F
SALUDA*        CLOUDY    48  48 100 CALM      29.59F
NEWPORT NEWS   CLOUDY    49  48  97 NE3       29.58F FOG
LANGLEY AFB    CLOUDY    48  48 100 N8        29.56F
FORT EUSTIS    CLOUDY    50  48  93 CALM      29.55F
WILLIAMSBURG*  CLOUDY    52  52 100 CALM      29.59F
HR EXEC AP*    CLOUDY    50  48  93 E6        29.56F
FRANKLIN*      CLOUDY    50  49  98 NE7       29.58F FOG
US460-WAKEFLD  CLOUDY    50  50 100 NE3       29.58F FOG
$$

VAZ020-022-025-037-045-230200-
WEST CENTRAL AND SOUTHWEST VIRGINIA

CITY           SKY/WX    TMP DP  RH WIND       PRES   REMARKS
STAUNTON*      DRIZZLE   46  46  99 NE3       29.61S
WAYNESBORO*    CLOUDY    46  45  95 N5        29.58F
HOT SPRINGS VA HVY RAIN  45  45 100 E10       29.52F VSB<1/4
LYNCHBURG      CLOUDY    50  49  96 NE10      29.55F FOG
DANVILLE       CLOUDY    51  51 100 E8        29.50F FOG
SOUTH BOSTON*  CLOUDY    51  50  95 NE7       29.52F
MARTINSVILLE   CLOUDY    50  49  97 E7        29.52S FOG
ROANOKE        CLOUDY    51  51 100 SE7       29.54F FOG
BLACKSBURG     CLOUDY    49  49 100 E14G20    29.52F FOG
DUBLIN*        CLOUDY    50  50 100 E12       29.48F FOG
MARION*        CLOUDY    51  50  96 E10       29.46S
HILLSVILLE*    CLOUDY    48  48 100 E7        29.45R
RICHLANDS*     MOCLDY    53  47  82 E8        29.39F
WISE*          LGT RAIN  54  46  76 CALM      29.37F
ABINGDON*      CLOUDY    56  51  81 E13       29.40R
$$

MDZ021>025-VAZ099-100-230200-
SOUTHERN MARYLAND AND THE DELMARVA PENINSULA

CITY           SKY/WX    TMP DP  RH WIND       PRES   REMARKS
PATUXENT RIVER CLOUDY    48  48 100 N9        29.60F FOG
BAY BRIDGE APT CLOUDY    48  48 100 NE8       29.63F FOG
LEONARDTOWN    CLOUDY    46  45  93 CALM      29.62F VSB 1
DOVER          CLOUDY    48  48 100 NE9       29.65R HAZE
GEORGETOWN     CLOUDY    50  49  96 NE15      29.63S FOG
EASTON         CLOUDY    50  48  93 E12       29.66F FOG
CAMBRIDGE      CLOUDY    48  48 100 NE7       29.60F
SALISBURY      CLOUDY    50  49  96 NE14      29.59F FOG
OCEAN CITY     CLOUDY    47  47 100 NE15G22   29.60S FOG
WALLOPS ISLAND CLOUDY    51  51 100 NE15      29.58F
ACCOMACK*      CLOUDY    52  52  99 N5        29.58S FOG
$$

NCZ012>017-030>032-230200-
NORTH CENTRAL AND EASTERN NORTH CAROLINA

CITY           SKY/WX    TMP DP  RH WIND       PRES   REMARKS
ROANOKE RAPIDS CLOUDY    52  52 100 NE6       29.55F FOG
RALEIGH        CLOUDY    54  52  93 NE8       29.47F FOG
ELIZABETH CITY CLOUDY    51  50  96 N7        29.57F
AHOSKIE*       DRIZZLE   51  50  99 NE6       29.55F
EDENTON*       CLOUDY    54  53  96 E6        29.56F FOG
CURRITUCK*     CLOUDY    51  51 100 N5        29.59F
KILL DEVIL HLS NOT AVBL
MANTEO         CLOUDY    49  49 100 N7        29.57F FOG
CAPE HATTERAS  CLOUDY    56  54  93 NE7       29.53F FOG
TARBORO*       NOT AVBL
GOLDSBORO      CLOUDY    57  57 100 E12       29.46F
WASHINGTON     CLOUDY    56  55  95 NE6         N/A
GREENVILLE     CLOUDY    55  55 100 E3        29.56S FOG
NEW BERN       CLOUDY    59  57  93 E7        29.52F
WILMINGTON     CLOUDY    58  58 100 NE7       29.46F
$$

VAZ048-230200-
ELSEWHERE

CITY           SKY/WX    TMP DP  RH WIND       PRES   REMARKS
HARRISBURG PA  CLOUDY    48  47  96 E3        29.66F FOG
BALTIMORE      LGT RAIN  49  49 100 NE12      29.64S
ANNAPOLIS      CLOUDY    50  47  89 NE9       29.62F FOG
ANDREWS AFB    CLOUDY    48  48 100 NE9       29.62S FOG
PHILADELPHIA   CLOUDY    48  46  93 NE10      29.69F
HENDERSON NC   CLOUDY    50  49  98 NE7       29.51F FOG
GREENSBORO     LGT RAIN  52  52 100 E7        29.49R VSB 1/2
ROCKY MOUNT    CLOUDY    53  53 100 NE7       29.51F FOG
$$

VAZ100-230200-
MARINE

STATION/POSITION TIME  TEMP    WIND        PRES    WAVE   SWELL
                       AIR SEA DIR/SP/G            HT/PER HT/PER
                 (UTC) (F)     (DEG/KT/KT) (MB)    (FT/S) (FT/S)
CAPE MAY NJ      0042   48 42   40/  5/ 11 1002.9S
LEWES DE         0036   46 42   60/ 16/ 19 1003.1S
OCEAN-CITY-INLET 0036   46 43   40/  9/ 14 1002.9R
WACHAPREAGUE VA  0042   51 50   30/ 12/ 17 1001.4F
THOMAS POINT MD  0000   45 40   20/ 12/ 13   N/A
GOOSES REEF MD   0050   44      20/  8/ 10 1003.6F
COVE POINT MD    0042   42     350/ 10/ 11 1003.2F
SOLOMONS ISLAND  0042   48 42  340/  4/  5   N/A
BISHOPS HEAD MD  0042   48 46   30/ 10/ 12 1002.3S
PINEY POINT MD   0042           60/  4/  7   N/A
POTOMAC MD       0050   47      40/ 10/ 12 1001.3F
CAMBRIDGE MD     0042   49 40   50/ 10/ 11 1002.1F
LEWISETTA VA     0042   47 45   30/  3/  4 1002.2F
RAPPAHANNOCK LGT 0042          360/ 11/ 11 1002.3F
STINGRAY PT      0050   44     360/  6/  8 1002.6F
YORK RVR RNG VA  0042   47     360/  9/  9 1001.2F
YORKTOWN VA      0042   48 44  350/  3/  4 1001.6F
JAMESTOWN VA     0050   49     100/  2/  2   N/A
DOMINION TERM VA 0042   49      20/  4/  6 1001.8F
CHES BAY BRIDGE  0042   45 44  360/ 11/ 12 1001.7F
CAPE HENRY VA    0042   45     300/  6/  8   N/A
WILLOUBY STN VA  0030   48     350/  5/  6 1003.0F
S CRANEY ISL VA  0042   47     360/  4/  5 1001.7F
CAPE HENRY BUOY  0042      47                N/A     4/12   2/12
OFFSHORE WE BUOY 0051      48                N/A     4/11   2/11
64NM E OF VA BCH 0050   50 56  280/ 14/ 17 1000.9R   5/13   3/13
DUCK PIER NC     0042   47 47  360/  6/  7 1001.2F
44100 DUCK FRF   0035      48                N/A     4/13   2/13
44056 DUCK FRF   0030      47                N/A     3/13   2/13
OREGON INLET NC  0042   47 51  360/  7/ 11 1001.5F
HATTERAS NC      0042   57 55   20/  6/  8  999.7F
DIAMOND SHLS NC  2350   63 71  330/ 10/ 12 1001.0    4/13   3/13
CAPE LOOKOUT NC  0000   60      20/  5/  8 1000.3F
$$



USA.gov is the U.S. government's official web portal to all federal, state and local government web resources and services.